Find Kosmos-1228

NORAD ID: 12107 Int'l Des: 1980-102 Owner: GUKOSR Country: SU operational
LEOCIRCULAR

リアルタイム位置

3D地球を読み込み中...

Kosmos-1228について

説明を読み込み中...

次回通過

Passes for default location (London). Set your location on the main map for personalized predictions.

高度履歴

Loading altitude history...

軌道要素

1 12107U 80102A 26106.23354631 -.00000011 00000-0 28669-4 0 9992
2 12107 74.0004 12.1871 0044759 74.0184 45.6021 12.58648787 81824
Epoch: Apr 16, 2026 • Age: 15 hours

現在のステータス

高度 1407.6 km
速度 7.18 km/s
衛星直下点 74.05°N, 51.32°W
打ち上げ日 Dec 23, 1980
運用期間 45.3 years
タイプ other

技術仕様

分類 Payload
質量 60.00 kg
乾燥質量 60.00 kg
総質量 60.00 kg
長さ 0.80 m
直径 0.80 m
スパン 0.80 m
形状 Poly
製造者 NPOPM
バスタイプ Strela-1 11F625
フェーズステータス In Orbit
所有者/国 GUKOSR/SU

Most Searched